Regional Weather Roundup
Issued by NWS

Home | Current Version | Previous Version | Text Only | Print | Product List | Glossary On
Versions: 1 2 3 4 5 6 7 8 9 10 11 12 13 14 15 16 17 18 19 20 21 22 23 24 25 26 27 28 29 30 31 32 33 34 35 36 37 38 39 40 41 42 43 44 45 46 47 48 49 50
000
ASUS43 KIND 272309
RWRIN

WEATHER ROUNDUP FOR INDIANA
NATIONAL WEATHER SERVICE INDIANAPOLIS IN
600 PM EST MON FEB 27 2017

NOTE: "FAIR" INDICATES FEW OR NO CLOUDS BELOW 12,000 FEET WITH NO
SIGNIFICANT WEATHER AND/OR OBSTRUCTIONS TO VISIBILITY.

* - STATION DOES NOT REPORT WEATHER SUCH AS PRECIPITATION OR FOG.

+ - STATION NOT QUALITY CONTROLLED BY THE NATIONAL WEATHER SERVICE.
    USE DATA WITH CAUTION...ESPECIALLY DEWPOINT AND RELATIVE
    HUMIDITY OBSERVATIONS.

INZ001>003-010>013-019-020-280000-
NORTHWEST INDIANA

CITY           SKY/WX    TMP DP  RH WIND       PRES   REMARKS
GARY /AIRPORT/ MOCLDY    55  28  35 S6        30.09S
KNOX *+        CLEAR     50  12  22 SE7       30.10F
LA PORTE +     CLEAR     49  34  56 SE8       30.11S
MICHIGAN CITY+ CLEAR     50  32  50 S5        30.11S
MONTICELLO +   MOCLDY    51  37  59 S6        30.10F
RENSSELAER +   PTCLDY    52  34  50 SE7       30.09F
VALPARAISO     PTCLDY    52  35  52 SE7       30.10F

$$

LMZ046-743>745-280000-
SOUTHERN LAKE MICHIGAN

STATION/POSITION TIME  TEMP    WIND        PRES    WAVE
                       AIR SEA DIR/SP/G            HT
                 (UTC) (F)     (DEG/KT/KT) (MB)    (FT)
BURNS HARBOR     2240   52     180/  8/ 15 1019.6S
MICHIGAN CITY    2240   51     130/ 13/ 15   N/A

$$

INZ004-005-014>016-021>024-280000-
NORTH CENTRAL INDIANA

CITY           SKY/WX    TMP DP  RH WIND       PRES   REMARKS
ELKHART        CLEAR     48  32  53 S9        30.13F
GOSHEN         PTCLDY    49  32  52 SE7       30.13F
LOGANSPORT +   CLOUDY    50  37  62 SE10      30.13S
PERU/GRISSOM   PTCLDY    49  40  72 SE12      30.11S
ROCHESTER +    CLEAR     52  34  50 SE6       30.12F
SOUTH BEND     CLEAR     49  33  54 S9        30.12F
WARSAW +       PTCLDY    48  34  57 SE6       30.13F

$$

INZ006>009-017-018-025>027-280000-
NORTHEAST INDIANA

CITY           SKY/WX    TMP DP  RH WIND       PRES   REMARKS
ANGOLA *+      MOCLDY    46  36  66 S5        30.15S
AUBURN +       CLOUDY    48  32  53 CALM      30.16S
FORT WAYNE     MOCLDY    48  37  65 SE7       30.16F
HUNTINGTON +   MOCLDY    48  37  64 S6        30.15R
KENDALLVILLE + CLOUDY    47  34  62 S5        30.15S

$$

INZ028-029-035-036-043>045-051>053-280000-
WEST CENTRAL INDIANA

CITY           SKY/WX    TMP DP  RH WIND       PRES   REMARKS
GREENCASTLE +  CLOUDY    48  41  76 S10       30.13S
LAFAYETTE      MOCLDY    52  38  58 SE8       30.10S
TERRE HAUTE    MOCLDY    52  42  69 SE9       30.11F

$$

INZ030>032-037>040-046>048-054>057-064-065-280000-
CENTRAL INDIANA

CITY           SKY/WX    TMP DP  RH WIND       PRES   REMARKS
CP ATTERBURY + CLOUDY    50  41  71 S5        30.16S
COLUMBUS       MOCLDY    48  45  87 SE7       30.16F
FISHERS *+     PTCLDY    46  43  87 S9        30.14S
FRANKFORT +    PTCLDY    53  41  63 S9        30.13S
GREENWOOD *+   CLOUDY    49  43  79 S8        30.16S
INDIANAPOLIS   MOCLDY    49  41  74 SE10      30.13F
-EAGLE CREEK   MOCLDY    50  40  68 SE6       30.12F
KOKOMO +       PTCLDY    48  39  71 S13       30.14S
MARION +       CLEAR     48  39  70 S10       30.15S
MT COMFORT *+  CLOUDY    46  41  81 S7        30.16R
SHELBYVILLE    CLOUDY    50  41  71 S9        30.15F
ZIONSVILLE +   CLEAR     48  40  72 SE10      30.13F

$$

INZ033-034-041-042-049-050-058-059-280000-
EAST CENTRAL INDIANA

CITY           SKY/WX    TMP DP  RH WIND       PRES   REMARKS
MUNCIE         CLOUDY    49  39  68 S7        30.15F

$$

INZ060-061-067>069-081>083-085>088-280000-
SOUTHWEST INDIANA

CITY           SKY/WX    TMP DP  RH WIND       PRES   REMARKS
EVANSVILLE     CLEAR     58  46  64 E6        30.11F
HUNTINGBURG *+ PTCLDY    55  46  71 NE7       30.11F
WASHINGTON +   MOCLDY    53  43  69 SE7       30.12F

$$

INZ062-063-066-070>080-084-089>092-280000-
SOUTH CENTRAL AND SOUTHEAST INDIANA

CITY           SKY/WX    TMP DP  RH WIND       PRES   REMARKS
BEDFORD +      PTCLDY    52  41  66 SE5       30.14S
BLOOMINGTON    CLOUDY    51  41  68 SE7       30.13F
MADISON *+     CLEAR     52  37  58 CALM      30.18S
NORTH VERNON + CLOUDY    50  46  87 SE5       30.17F
SEYMOUR +      PTCLDY    52  45  76 E6        30.15

$$




USA.gov is the U.S. government's official web portal to all federal, state and local government web resources and services.